KF4PPJ Weather Reports


time (UTC)temp
C
wind
direction
speed
KPH
gust
KPH
rain 1hr
cm
rain 24hr
cm
rain mn
cm
humidity
%
barometer
mb
20260503223929 27 230 4.8 11.3 0.00 0.00 0.00 38 1013.4
20260503223427 27 209 6.4 9.7 0.00 0.00 0.00 38 1013.4
20260503222922 27 190 4.8 4.8 0.00 0.00 0.00 37 1013.6
20260503222421 27 246 6.4 9.7 0.00 0.00 0.00 39 1013.6
20260503221919 26 236 4.8 9.7 0.00 0.00 0.00 40 1013.9
20260503221417 26 191 6.4 14.5 0.00 0.00 0.00 40 1013.9
20260503220913 26 269 11.3 12.9 0.00 0.00 0.00 39 1013.9
20260503220410 26 207 11.3 14.5 0.00 0.00 0.00 38 1013.9
20260503215907 27 359 8.0 9.7 0.00 0.00 0.00 39 1014.0
20260503215404 27 206 4.8 8.0 0.00 0.00 0.00 39 1013.9
20260503214901 26 218 6.4 9.7 0.00 0.00 0.00 40 1014.0
20260503214358 26 254 6.4 11.3 0.00 0.00 0.00 41 1014.1
20260503213856 26 29 8.0 11.3 0.00 0.00 0.00 40 1014.1
20260503213354 26 222 6.4 17.7 0.00 0.00 0.00 40 1014.2
20260503212850 26 232 4.8 9.7 0.00 0.00 0.00 40 1014.1
20260503212348 26 234 4.8 11.3 0.00 0.00 0.00 40 1014.2
20260503211845 26 245 4.8 8.0 0.00 0.00 0.00 42 1014.3
20260503211342 25 251 9.7 12.9 0.00 0.00 0.00 41 1014.3
20260503210837 25 132 3.2 8.0 0.00 0.00 0.00 42 1014.3
20260503210334 26 256 9.7 11.3 0.00 0.00 0.00 40 1014.4
20260503205829 26 243 6.4 9.7 0.00 0.00 0.00 41 1014.4
20260503205326 26 6 6.4 11.3 0.00 0.00 0.00 40 1014.4
20260503204823 26 282 8.0 9.7 0.00 0.00 0.00 41 1014.6
20260503204320 26 159 4.8 4.8 0.00 0.00 0.00 41 1014.8
20260503203817 26 244 6.4 9.7 0.00 0.00 0.00 42 1014.5
20260503203315 25 140 1.6 4.8 0.00 0.00 0.00 43 1014.6
20260503202811 25 233 4.8 8.0 0.00 0.00 0.00 43 1014.7
20260503202310 26 353 9.7 22.5 0.00 0.00 0.00 42 1014.7
20260503201807 25 164 1.6 3.2 0.00 0.00 0.00 44 1014.9
20260503201304 26 177 9.7 12.9 0.00 0.00 0.00 42 1015.0
20260503200802 26 155 1.6 3.2 0.00 0.00 0.00 43 1015.0
20260503200257 25 205 4.8 8.0 0.00 0.00 0.00 45 1015.0
20260503195755 25 175 4.8 12.9 0.00 0.00 0.00 44 1014.9
20260503195251 25 254 4.8 8.0 0.00 0.00 0.00 44 1015.1
20260503194749 25 126 3.2 4.8 0.00 0.00 0.00 45 1015.3
20260503194245 25 164 1.6 3.2 0.00 0.00 0.00 46 1015.2
20260503193741 25 146 6.4 11.3 0.00 0.00 0.00 46 1015.4
20260503193237 25 14 4.8 8.0 0.00 0.00 0.00 48 1015.4
20260503192733 25 231 11.3 12.9 0.00 0.00 0.00 44 1015.5
20260503192228 25 116 4.8 4.8 0.00 0.00 0.00 46 1015.4
20260503191725 25 100 6.4 9.7 0.00 0.00 0.00 45 1015.4
20260503191222 24 143 1.6 11.3 0.00 0.00 0.00 47 1015.6
20260503190719 25 144 6.4 11.3 0.00 0.00 0.00 46 1015.8
20260503190215 24 342 6.4 9.7 0.00 0.00 0.00 47 1015.8
20260503185713 24 177 4.8 8.0 0.00 0.00 0.00 45 1015.7
20260503185208 24 78 4.8 8.0 0.00 0.00 0.00 48 1016.0
20260503184703 24 112 3.2 11.3 0.00 0.00 0.00 48 1016.1
20260503184200 24 118 1.6 11.3 0.00 0.00 0.00 48 1016.1
20260503183656 23 86 4.8 11.3 0.00 0.00 0.00 48 1016.2
20260503183154 24 115 6.4 11.3 0.00 0.00 0.00 48 1016.4
20260503182651 23 159 0.0 3.2 0.00 0.00 0.00 49 1015.9
20260503182150 23 130 6.4 11.3 0.00 0.00 0.00 50 1016.3
20260503181646 23 136 8.0 9.7 0.00 0.00 0.00 51 1016.3
20260503181143 22 189 3.2 11.3 0.00 0.00 0.00 51 1016.3
20260503180640 22 165 9.7 14.5 0.00 0.00 0.00 51 1016.5
20260503180138 22 34 8.0 17.7 0.00 0.00 0.00 52 1016.3
20260503175635 22 9 8.0 11.3 0.00 0.00 0.00 51 1016.2
20260503175132 23 64 8.0 11.3 0.00 0.00 0.00 52 1016.3
20260503174623 22 130 4.8 9.7 0.00 0.00 0.00 52 1016.5
20260503174120 22 155 1.6 9.7 0.00 0.00 0.00 52 1016.4
20260503173615 21 249 4.8 8.0 0.00 0.00 0.00 55 1016.5
20260503173112 21 178 1.6 3.2 0.00 0.00 0.00 57 1016.3
20260503172609 21 220 8.0 9.7 0.00 0.00 0.00 52 1016.5
20260503172106 21 62 6.4 9.7 0.00 0.00 0.00 52 1016.6
20260503171602 21 183 3.2 3.2 0.00 0.00 0.00 53 1016.6
20260503171100 22 95 8.0 12.9 0.00 0.00 0.00 51 1016.6
20260503170556 21 183 3.2 4.8 0.00 0.00 0.00 52 1016.5
20260503150949 15 167 0.0 1.6 0.00 0.00 0.00 74 1017.0
20260503150445 15 157 0.0 0.0 0.00 0.00 0.00 78 1016.9
20260503131331 10 151 0.0 0.0 0.00 0.00 0.00 90 1017.0
20260503130829 10 151 0.0 0.0 0.00 0.00 0.00 90 1016.8
20260503130327 10 149 0.0 0.0 0.00 0.00 0.00 90 1016.8
20260503110720 11 150 0.0 1.6 0.00 0.00 0.00 84 1017.0
20260503110218 11 151 0.0 0.0 0.00 0.00 0.00 83 1017.1
20260503100144 12 112 3.2 3.2 0.00 0.00 0.00 79 1017.0
20260503081538 13 148 0.0 0.0 0.00 0.00 0.00 73 1017.2
20260503081036 13 147 0.0 1.6 0.00 0.00 0.00 73 1017.2
20260503080531 13 149 0.0 1.6 0.00 0.00 0.00 72 1017.0
20260503072506 15 138 1.6 1.6 0.00 0.00 0.00 65 1017.2
20260503072003 15 106 3.2 3.2 0.00 0.00 0.00 64 1017.1
20260503071500 15 122 1.6 1.6 0.00 0.00 0.00 64 1017.0
20260503070955 15 134 1.6 3.2 0.00 0.00 0.00 65 1017.0
20260503070453 15 132 1.6 1.6 0.00 0.00 0.00 64 1017.1
20260503054906 16 143 0.0 1.6 0.00 0.00 0.00 69 1016.8
20260503054402 16 118 3.2 3.2 0.00 0.00 0.00 68 1016.7
20260503053900 15 120 1.6 3.2 0.00 0.00 0.00 69 1016.7
20260503053358 15 131 1.6 3.2 0.00 0.00 0.00 70 1016.8
20260503052853 15 128 1.6 3.2 0.00 0.00 0.00 70 1016.8
20260503052351 15 145 0.0 1.6 0.00 0.00 0.00 71 1016.7
20260503051847 15 154 1.6 3.2 0.00 0.00 0.00 71 1016.8
20260503051343 15 153 1.6 3.2 0.00 0.00 0.00 72 1016.8
20260503050841 15 147 0.0 1.6 0.00 0.00 0.00 71 1016.8
20260503050336 15 164 0.0 3.2 0.00 0.00 0.00 71 1016.7
20260503045834 15 147 1.6 3.2 0.00 0.00 0.00 71 1016.7
20260503045332 15 152 1.6 1.6 0.00 0.00 0.00 70 1016.8
20260503044828 15 142 1.6 1.6 0.00 0.00 0.00 70 1016.8
20260503044325 16 152 0.0 1.6 0.00 0.00 0.00 70 1016.7
20260503043822 16 153 1.6 1.6 0.00 0.00 0.00 70 1016.6
20260503043319 16 147 0.0 1.6 0.00 0.00 0.00 70 1016.7
20260503042815 16 148 0.0 0.0 0.00 0.00 0.00 69 1016.5
20260503042312 16 146 0.0 1.6 0.00 0.00 0.00 68 1016.3
20260503041808 16 146 1.6 1.6 0.00 0.00 0.00 68 1016.2
20260503041306 16 146 0.0 1.6 0.00 0.00 0.00 67 1016.5
20260503040803 16 144 0.0 1.6 0.00 0.00 0.00 67 1016.3
20260503040301 17 142 1.6 1.6 0.00 0.00 0.00 66 1016.3
20260503035757 17 146 0.0 1.6 0.00 0.00 0.00 66 1016.0
20260503035255 17 140 0.0 1.6 0.00 0.00 0.00 65 1016.0
20260503034752 17 139 0.0 1.6 0.00 0.00 0.00 65 1016.0
20260503034249 17 137 0.0 1.6 0.00 0.00 0.00 63 1015.9
20260503033746 18 131 1.6 3.2 0.00 0.00 0.00 63 1015.8
20260503033244 18 126 1.6 3.2 0.00 0.00 0.00 62 1015.8
20260503032742 18 125 3.2 3.2 0.00 0.00 0.00 62 1015.7
20260503032240 19 154 0.0 1.6 0.00 0.00 0.00 62 1015.8
20260503031737 19 160 0.0 1.6 0.00 0.00 0.00 59 1015.7
20260503031235 19 152 0.0 1.6 0.00 0.00 0.00 61 1015.7
20260503030731 20 172 1.6 1.6 0.00 0.00 0.00 60 1015.7
20260503030227 20 126 0.0 1.6 0.00 0.00 0.00 59 1015.7
20260503025724 20 150 0.0 1.6 0.00 0.00 0.00 59 1015.6
20260503025222 20 135 1.6 1.6 0.00 0.00 0.00 59 1015.4
20260503024718 21 150 1.6 11.3 0.00 0.00 0.00 55 1015.3
20260503024216 21 124 0.0 1.6 0.00 0.00 0.00 53 1015.4
20260503023712 21 149 0.0 4.8 0.00 0.00 0.00 53 1015.2
20260503023204 21 329 3.2 4.8 0.00 0.00 0.00 52 1015.2
20260503022700 22 124 1.6 8.0 0.00 0.00 0.00 52 1015.2
20260503022200 22 180 6.4 12.9 0.00 0.00 0.00 51 1015.3
20260503021657 22 111 3.2 3.2 0.00 0.00 0.00 52 1015.2
20260503021153 22 191 4.8 8.0 0.00 0.00 0.00 51 1015.2
20260503020651 22 23 4.8 9.7 0.00 0.00 0.00 51 1015.2
20260503020148 22 4 4.8 11.3 0.00 0.00 0.00 51 1015.3
20260503015645 22 348 9.7 12.9 0.00 0.00 0.00 50 1015.0
20260503015142 22 160 1.6 11.3 0.00 0.00 0.00 50 1015.2
20260503014637 23 123 6.4 8.0 0.00 0.00 0.00 49 1015.2
20260503014136 23 132 3.2 4.8 0.00 0.00 0.00 49 1015.2
20260503013633 23 340 6.4 11.3 0.00 0.00 0.00 48 1015.3
20260503013131 23 332 12.9 22.5 0.00 0.00 0.00 48 1015.2
20260503012627 23 187 3.2 4.8 0.00 0.00 0.00 46 1015.1
20260503012124 23 161 1.6 11.3 0.00 0.00 0.00 46 1015.5
20260503011621 24 155 3.2 9.7 0.00 0.00 0.00 46 1015.5
20260503011118 24 158 1.6 3.2 0.00 0.00 0.00 46 1015.4
20260503010614 24 116 1.6 8.0 0.00 0.00 0.00 45 1015.4
20260503010112 24 32 8.0 11.3 0.00 0.00 0.00 45 1015.5
20260503005608 24 69 4.8 8.0 0.00 0.00 0.00 45 1015.6
20260503005106 23 300 8.0 11.3 0.00 0.00 0.00 46 1015.5
20260503004602 24 44 8.0 17.7 0.00 0.00 0.00 45 1015.4
20260503004101 24 241 6.4 9.7 0.00 0.00 0.00 46 1015.6
20260503003556 24 359 8.0 11.3 0.00 0.00 0.00 45 1015.5
20260503003054 25 150 1.6 9.7 0.00 0.00 0.00 45 1015.5
20260503002550 25 190 3.2 8.0 0.00 0.00 0.00 46 1015.6
20260503002048 25 155 3.2 9.7 0.00 0.00 0.00 45 1015.6
20260503001543 25 160 1.6 8.0 0.00 0.00 0.00 45 1015.6
20260503001041 25 164 6.4 9.7 0.00 0.00 0.00 45 1015.7
20260503000538 25 115 3.2 11.3 0.00 0.00 0.00 45 1015.6
20260503000035 25 76 6.4 11.3 0.00 0.00 0.00 45 1015.8
20260502235532 24 218 3.2 4.8 0.00 0.00 0.00 45 1015.9
20260502235030 24 218 4.8 8.0 0.00 0.00 0.00 45 1015.8
20260502234526 23 151 1.6 4.8 0.00 0.00 0.00 45 1015.8
20260502234023 24 25 8.0 12.9 0.00 0.00 0.00 45 1015.9
20260502233518 24 112 3.2 14.5 0.00 0.00 0.00 45 1016.1
20260502233016 24 170 4.8 8.0 0.00 0.00 0.00 44 1016.2
20260502232512 24 11 8.0 11.3 0.00 0.00 0.00 44 1016.2
20260502232009 24 212 4.8 8.0 0.00 0.00 0.00 43 1016.4
20260502231506 24 246 6.4 12.9 0.00 0.00 0.00 43 1016.2
20260502231004 23 113 3.2 11.3 0.00 0.00 0.00 44 1016.6
20260502230502 24 40 4.8 9.7 0.00 0.00 0.00 43 1016.6
20260502230000 24 185 4.8 11.3 0.00 0.00 0.00 43 1016.8
20260502225455 24 176 0.0 9.7 0.00 0.00 0.00 44 1016.8
20260502224952 24 173 8.0 11.3 0.00 0.00 0.00 45 1016.7
20260502224449 25 143 4.8 8.0 0.00 0.00 0.00 45 1016.7
20260502223946 24 220 4.8 11.3 0.00 0.00 0.00 46 1016.7